[[{"header":{"parameterUnit":"m.s-1","parameterCategory":1,"la1":30.2991,"la2":30.254,"lo1":-89.0895,"lo2":-89.0444,"dy":0.0017,"dx":0.0017,"nx":28,"ny":28,"refTime":"2024-11-29T09:00:00:Z","depth":0,"parameterNumber":2,"parameterNumberName":"U-component_of_WINDS"},"data":[0,0,0,0,0,0,0,0,0,0,0,0,0,0,0,0,0,0,0,0,0,0,0,0,0,0,0,0,0,0,0,0,0,0,0,0,0,0,0,0,0,0,0,0,0,0,0,0,0,0,0,0,0,0,0,0,0,0,-2.3367,-2.3367,0,-2.3368,-2.3368,-2.3368,-2.3294,-2.3292,-2.3291,-2.3289,-2.3292,-2.3294,-2.3295,0,0,0,0,0,0,0,0,0,0,0,0,0,-2.3303,-2.3305,-2.3367,-2.3367,-2.3367,-2.3368,-2.3368,-2.3368,-2.3295,-2.3292,-2.329,-2.3288,-2.3291,-2.3293,-2.3296,0,0,0,0,0,0,0,0,0,0,0,0,0,-2.332,-2.3305,-2.3367,-2.3331,-2.3328,-2.3368,-2.3368,-2.3368,-2.3295,-2.3292,-2.3289,-2.3287,-2.329,-2.3293,-2.3296,-2.3372,0,0,-2.3305,-2.3306,0,0,0,0,0,0,0,0,-2.332,-2.3323,-2.3336,-2.3333,-2.333,-2.3328,-2.3346,-2.337,-2.3296,-2.3308,-2.3289,-2.3285,-2.3306,-2.3308,-2.3314,-2.3372,-2.3372,-2.3305,-2.3307,-2.3308,-2.3309,0,0,0,0,0,0,0,-2.3318,-2.3322,-2.3368,-2.3336,-2.3333,-2.3315,-2.3314,-2.3351,-2.3324,-2.3306,-2.3301,-2.3302,-2.3304,-2.3312,-2.3314,-2.3372,-2.3305,-2.3307,-2.3309,-2.331,-2.3492,-2.3495,0,0,0,0,0,0,-2.3322,-2.3322,-2.3368,-2.3368,-2.3317,-2.3318,-2.3317,-2.3332,-2.3323,-2.3319,-2.3304,-2.3299,-2.3308,-2.3311,-2.3314,-2.3402,-2.3308,-2.331,-2.3312,-2.3489,-2.3493,-2.3496,0,0,0,0,0,0,-2.3321,-2.3327,-2.3368,-2.3343,-2.3347,-2.3322,-2.3339,-2.3333,-2.3341,-2.3321,-2.3316,-2.3317,-2.3306,-2.331,-2.3358,-2.3401,-2.3312,-2.3314,-2.3485,-2.349,-2.3494,-2.358,0,0,0,0,0,0,-2.3319,-2.3327,-2.3356,-2.3345,-2.3349,-2.3412,-2.3342,-2.3335,-2.3346,-2.3338,-2.3332,-2.3328,-2.3304,-2.3354,-2.3361,-2.3404,-2.3317,-2.3481,-2.3487,-2.3493,-2.3573,-2.3587,-2.3599,0,0,0,0,0,-2.3317,-2.3381,-2.3358,-2.3364,-2.3384,-2.3415,-2.3417,-2.3387,-2.335,-2.3378,-2.3365,-2.3329,-2.3395,-2.3359,-2.3366,-2.3411,-2.3478,-2.3485,-2.3492,-2.3567,-2.3584,-2.3598,0,0,0,0,0,0,-2.3399,-2.3379,-2.3353,-2.3414,-2.3416,-2.3402,-2.3438,-2.3406,-2.342,-2.3412,-2.3375,-2.3374,-2.3428,-2.3424,-2.3385,-2.3483,-2.343,-2.3439,-2.3485,-2.3501,-2.3513,-2.3514,-2.3319,0,0,0,0,0,-2.3424,-2.345,-2.3431,-2.3487,-2.3489,-2.3463,-2.3475,-2.3452,-2.3453,-2.3454,-2.3445,-2.3448,-2.3469,-2.3484,-2.3503,-2.3571,-2.3569,-2.3605,-2.3618,-2.3629,-2.3637,-2.3673,-2.3688,-2.3519,-2.3519,-2.3519,0,0,-2.3476,-2.3468,-2.3487,-2.3503,-2.3502,-2.353,-2.3465,-2.3497,-2.3518,-2.3459,-2.3504,-2.3497,-2.3498,-2.3557,-2.3582,-2.3555,-2.3683,-2.3638,-2.3646,-2.3649,-2.3681,-2.3697,-2.3712,-2.3524,-2.3523,-2.3522,0,0,-2.3586,-2.3582,-2.3628,-2.3628,-2.3627,-2.3609,-2.362,-2.3609,-2.3602,-2.3646,-2.3603,-2.3626,-2.3664,-2.3666,-2.3672,-2.378,-2.3747,-2.3787,-2.3855,-2.389,-2.3903,-2.3915,-2.3954,-2.3968,-2.3795,-2.3796,-2.3796,0,-2.3652,-2.3692,-2.3656,-2.3691,-2.3699,-2.3645,-2.3692,-2.3693,-2.3699,-2.3706,-2.3675,-2.372,-2.3717,-2.3775,-2.3801,-2.3808,-2.3819,-2.3789,-2.3904,-2.3915,-2.3926,-2.3963,-2.3977,-2.3801,-2.38,-2.38,-2.3799,0,-2.3772,-2.3801,-2.3838,-2.3843,-2.3855,-2.3895,-2.3866,-2.3882,-2.3857,-2.3842,-2.3887,-2.3881,-2.3897,-2.3909,-2.3885,-2.3964,-2.3947,-2.391,-2.3856,-2.3948,-2.3981,-2.3995,-2.3808,-2.3806,-2.3805,-2.3803,0,0,-2.3937,-2.3919,-2.3934,-2.3935,-2.3928,-2.3949,-2.3987,-2.4001,-2.4016,-2.4021,-2.4052,-2.4084,-2.405,-2.4057,-2.4033,-2.4063,-2.4149,-2.4023,-2.4022,-2.4047,-2.4235,-2.4263,-2.428,-2.4126,-2.4128,-2.413,-2.4235,0,-2.4043,-2.4106,-2.4074,-2.4141,-2.4167,-2.4115,-2.4147,-2.4147,-2.4134,-2.4153,-2.4138,-2.4162,-2.4115,-2.4119,-2.4146,-2.4133,-2.4186,-2.4125,-2.4155,-2.4157,-2.4158,-2.4298,-2.4328,-2.4427,-2.4248,-2.425,-2.4252,0,-2.4177,-2.4186,-2.4255,-2.4242,-2.4252,-2.4282,-2.4292,-2.4311,-2.4309,-2.4297,-2.4304,-2.4272,-2.4308,-2.4252,-2.4302,-2.426,-2.4271,-2.4266,-2.4269,-2.4272,-2.4211,-2.4305,-2.4458,-2.4473,-2.4272,-2.4271,-2.4269,0,-2.4291,-2.432,-2.4365,-2.4367,-2.4353,-2.4375,-2.4371,-2.4365,-2.4376,-2.4384,-2.4391,-2.4404,-2.4412,-2.4423,-2.4395,-2.4357,-2.4448,-2.4391,-2.444,-2.4441,-2.4463,-2.4462,-2.462,-2.4468,-2.4467,-2.4467,-2.4467,0,-2.4414,-2.4459,-2.4415,-2.4443,-2.4491,-2.4453,-2.4502,-2.4492,-2.4488,-2.4513,-2.4468,-2.4493,-2.4454,-2.4475,-2.4453,-2.4498,-2.4501,-2.4493,-2.4487,-2.4498,-2.4499,-2.4505,-2.4498,-2.4471,-2.447,-2.4469,-2.4469,0,-2.4551,-2.4523,-2.4568,-2.455,-2.4547,-2.4583,-2.4568,-2.4593,-2.4575,-2.4607,-2.4613,-2.4586,-2.4608,-2.458,-2.4601,-2.4586,-2.4646,-2.4629,-2.4647,-2.4642,-2.4693,-2.4689,-2.4862,-2.4883,-2.4716,-2.4718,-2.4719,0,-2.4632,-2.4665,-2.4649,-2.4662,-2.466,-2.4681,-2.4691,-2.4654,-2.4666,-2.4665,-2.4691,-2.4708,-2.4721,-2.4758,-2.4741,-2.4756,-2.474,-2.4799,-2.4742,-2.4751,-2.4741,-2.474,-2.4743,-2.4811,-2.4813,-2.4815,-2.4816,0,-2.478,-2.4764,-2.4779,-2.4789,-2.4801,-2.4807,-2.481,-2.4824,-2.4785,-2.4801,-2.4822,-2.4831,-2.485,-2.4869,-2.4878,-2.4874,-2.484,-2.4834,-2.4846,-2.4859,-2.4868,-2.4864,-2.468,-2.4831,-2.4829,-2.4828,-2.4828,-2.4827,-2.4891,-2.4918,-2.491,-2.4928,-2.4926,-2.4929,-2.4952,-2.4936,-2.4952,-2.4964,-2.4941,-2.4968,-2.4964,-2.4973,-2.4972,-2.4993,-2.4968,-2.4985,-2.499,-2.4995,-2.5003,-2.4863,-2.4995,-2.4994,-2.4994,-2.4993,-2.4993,0,-2.5037,-2.5029,-2.5046,-2.505,-2.5064,-2.5028,-2.5029,-2.5043,-2.5067,-2.5065,-2.5078,-2.5102,-2.5119,-2.5102,-2.5116,-2.5135,-2.512,-2.514,-2.5139,-2.5139,-2.5025,-2.5013,-2.5153,-2.5153,-2.5153,-2.5153,-2.5153,-2.5153,-2.5115,-2.5157,-2.514,-2.5181,-2.5172,-2.5197,-2.5201,-2.5204,-2.5202,-2.523,-2.5244,-2.5231,-2.5224,-2.5236,-2.525,-2.5245,-2.5252,-2.5279,-2.5268,-2.5163,-2.5147,-2.5132,-2.5121,-2.5281,-2.5281,-2.538,-2.5381,-2.5382]},{"header":{"parameterUnit":"m.s-1","parameterCategory":1,"la1":30.2991,"la2":30.254,"lo1":-89.0895,"lo2":-89.0444,"dy":0.0017,"dx":0.0017,"nx":28,"ny":28,"refTime":"2024-11-29T09:00:00:Z","depth":0,"parameterNumber":3,"parameterNumberName":"V-component_of_WINDS"},"data":[0,0,0,0,0,0,0,0,0,0,0,0,0,0,0,0,0,0,0,0,0,0,0,0,0,0,0,0,0,0,0,0,0,0,0,0,0,0,0,0,0,0,0,0,0,0,0,0,0,0,0,0,0,0,0,0,0,0,-8.4799,-8.4801,0,-8.4974,-8.4976,-8.4978,-8.4892,-8.4888,-8.4883,-8.4879,-8.5051,-8.506,-8.5069,0,0,0,0,0,0,0,0,0,0,0,0,0,-8.4384,-8.4392,-8.4799,-8.4801,-8.4803,-8.4974,-8.4976,-8.4979,-8.4893,-8.4887,-8.4882,-8.4877,-8.5048,-8.5059,-8.5069,0,0,0,0,0,0,0,0,0,0,0,0,0,-8.4562,-8.4395,-8.4799,-8.4781,-8.4782,-8.4973,-8.4976,-8.4979,-8.4894,-8.4887,-8.488,-8.4874,-8.5045,-8.5058,-8.5071,-8.5288,0,0,-8.5111,-8.5117,0,0,0,0,0,0,0,0,-8.4552,-8.4577,-8.4782,-8.4783,-8.4783,-8.4904,-8.4893,-8.5082,-8.4896,-8.4851,-8.4879,-8.4871,-8.5008,-8.5023,-8.5071,-8.5296,-8.5303,-8.5112,-8.512,-8.5126,-8.513,0,0,0,0,0,0,0,-8.454,-8.4569,-8.4868,-8.4785,-8.4786,-8.4763,-8.478,-8.4929,-8.4965,-8.4854,-8.4849,-8.4871,-8.5007,-8.5058,-8.5074,-8.5306,-8.5112,-8.5124,-8.5132,-8.5137,-8.5717,-8.5724,0,0,0,0,0,0,-8.4529,-8.456,-8.4862,-8.4873,-8.4649,-8.4776,-8.4796,-8.4872,-8.4963,-8.4971,-8.4877,-8.4866,-8.5039,-8.5059,-8.508,-8.534,-8.5126,-8.5138,-8.5146,-8.5709,-8.5718,-8.5726,0,0,0,0,0,0,-8.4521,-8.4557,-8.4855,-8.4715,-8.4751,-8.479,-8.4877,-8.4879,-8.4931,-8.498,-8.4985,-8.4923,-8.5035,-8.5061,-8.5237,-8.5345,-8.5144,-8.5156,-8.57,-8.5712,-8.5722,-8.5862,0,0,0,0,0,0,-8.4509,-8.4554,-8.4639,-8.4718,-8.4759,-8.5012,-8.4884,-8.4888,-8.4955,-8.4943,-8.5025,-8.5032,-8.5031,-8.5218,-8.525,-8.5359,-8.5167,-8.5691,-8.5705,-8.5719,-8.5848,-8.5876,-8.5901,0,0,0,0,0,-8.4495,-8.467,-8.4644,-8.4681,-8.4866,-8.5019,-8.5042,-8.504,-8.4964,-8.5048,-8.5079,-8.5029,-8.5328,-8.5237,-8.5272,-8.5387,-8.5684,-8.5701,-8.5718,-8.5836,-8.5871,-8.59,0,0,0,0,0,0,-8.46,-8.468,-8.4652,-8.4858,-8.4933,-8.5004,-8.511,-8.5077,-8.5172,-8.5157,-8.5148,-8.5167,-8.5349,-8.5385,-8.5282,-8.5601,-8.5494,-8.5519,-8.5571,-8.5605,-8.5631,-8.5619,-8.5178,0,0,0,0,0,-8.4648,-8.4768,-8.483,-8.5006,-8.5045,-8.5072,-8.5138,-8.513,-8.5205,-8.5236,-8.5279,-8.5353,-8.5463,-8.5536,-8.564,-8.5852,-8.5868,-8.5948,-8.5975,-8.5996,-8.6018,-8.6132,-8.6169,-8.5781,-8.5781,-8.5781,0,0,-8.4747,-8.4805,-8.4881,-8.5029,-8.5085,-8.5207,-8.5098,-8.5232,-8.5322,-8.5255,-8.5425,-8.5459,-8.554,-8.5736,-8.5824,-8.5771,-8.6128,-8.6018,-8.6035,-8.6045,-8.6153,-8.619,-8.6223,-8.5793,-8.5791,-8.5789,0,0,-8.4991,-8.5047,-8.52,-8.526,-8.5348,-8.5364,-8.5401,-8.5478,-8.5499,-8.567,-8.5622,-8.5727,-8.5917,-8.5977,-8.6033,-8.6299,-8.6256,-8.6332,-8.6471,-8.6583,-8.6614,-8.6641,-8.6735,-8.677,-8.6354,-8.6354,-8.6354,0,-8.5102,-8.5287,-8.5283,-8.5421,-8.5487,-8.5434,-8.5588,-8.5645,-8.5761,-8.5807,-8.5747,-8.5985,-8.6035,-8.6244,-8.6309,-8.6355,-8.6396,-8.6323,-8.661,-8.6637,-8.6662,-8.6752,-8.6788,-8.6363,-8.6362,-8.6361,-8.636,0,-8.542,-8.5548,-8.5661,-8.5778,-8.5856,-8.6001,-8.6017,-8.6096,-8.6081,-8.6103,-8.6276,-8.6335,-8.645,-8.6499,-8.6484,-8.6705,-8.667,-8.6611,-8.6502,-8.6708,-8.6793,-8.6827,-8.6375,-8.6372,-8.637,-8.6367,0,0,-8.5735,-8.5848,-8.589,-8.5942,-8.6035,-8.6133,-8.6275,-8.639,-8.6458,-8.6539,-8.6658,-8.682,-8.6765,-8.6828,-8.6819,-8.6918,-8.7125,-8.6846,-8.6847,-8.6896,-8.7371,-8.7416,-8.7456,-8.7097,-8.7103,-8.7108,-8.7364,0,-8.5986,-8.6237,-8.6237,-8.6469,-8.6587,-8.6538,-8.6661,-8.673,-8.6755,-8.6856,-8.6882,-8.6997,-8.6917,-8.6954,-8.7049,-8.708,-8.722,-8.7061,-8.7205,-8.721,-8.7187,-8.75,-8.7548,-8.7787,-8.7397,-8.7403,-8.7407,0,-8.6312,-8.6407,-8.6651,-8.6727,-8.6776,-8.6888,-8.6993,-8.7091,-8.7168,-8.7178,-8.7249,-8.7226,-8.7368,-8.7255,-8.745,-8.7342,-8.7401,-8.7424,-8.7433,-8.7447,-8.7321,-8.7523,-8.7863,-8.7899,-8.7459,-8.7455,-8.7451,0,-8.6518,-8.6706,-8.6877,-8.6923,-8.7016,-8.7095,-8.7137,-8.7207,-8.7276,-8.7367,-8.7411,-8.7517,-8.7575,-8.7656,-8.766,-8.7578,-8.7857,-8.7745,-8.7868,-8.7869,-8.793,-8.7926,-8.8285,-8.7967,-8.7967,-8.7966,-8.7965,0,-8.6798,-8.6949,-8.6971,-8.7076,-8.7243,-8.7241,-8.7405,-8.744,-8.7503,-8.7612,-8.7574,-8.7677,-8.7677,-8.7781,-8.7784,-8.7945,-8.7971,-8.7983,-8.7982,-8.7987,-8.7985,-8.8025,-8.8009,-8.7975,-8.7973,-8.7971,-8.797,0,-8.7057,-8.7078,-8.7261,-8.7334,-8.7356,-8.7476,-8.7537,-8.7636,-8.7657,-8.7795,-8.7827,-8.7859,-8.798,-8.7992,-8.8131,-8.8134,-8.8328,-8.8309,-8.8304,-8.8301,-8.8424,-8.8412,-8.8821,-8.8875,-8.8522,-8.8525,-8.8528,0,-8.7235,-8.735,-8.7437,-8.7508,-8.7555,-8.7671,-8.7742,-8.7742,-8.7817,-8.7913,-8.8,-8.8118,-8.8212,-8.8406,-8.844,-8.8546,-8.8529,-8.8665,-8.8545,-8.8546,-8.8532,-8.8525,-8.8537,-8.8689,-8.8693,-8.8696,-8.8698,0,-8.7548,-8.7553,-8.7658,-8.7767,-8.7853,-8.7938,-8.8017,-8.8077,-8.8088,-8.8173,-8.8298,-8.8371,-8.8514,-8.863,-8.8735,-8.8774,-8.8739,-8.8736,-8.877,-8.8777,-8.8769,-8.8775,-8.8368,-8.8727,-8.8724,-8.8722,-8.872,-8.8719,-8.7772,-8.7873,-8.795,-8.8067,-8.8128,-8.8203,-8.83,-8.8333,-8.8438,-8.8556,-8.8549,-8.8686,-8.8758,-8.8895,-8.8943,-8.9048,-8.9003,-8.9052,-8.9065,-8.9077,-8.909,-8.8752,-8.9067,-8.9066,-8.9066,-8.9065,-8.9064,0,-8.8084,-8.8131,-8.8239,-8.8353,-8.8446,-8.8406,-8.8491,-8.8571,-8.8693,-8.8764,-8.8858,-8.9,-8.9112,-8.9156,-8.9265,-8.9341,-8.9327,-8.937,-8.9364,-8.9374,-8.9125,-8.9084,-8.9379,-8.9379,-8.9379,-8.9379,-8.9379,-8.9379,-8.8257,-8.8425,-8.8439,-8.8636,-8.8681,-8.8817,-8.8869,-8.8938,-8.8995,-8.9157,-8.9251,-8.9279,-8.9339,-8.9452,-8.9553,-8.9563,-8.9605,-8.9655,-8.9657,-8.9423,-8.9392,-8.9361,-8.9324,-8.9664,-8.9664,-8.9898,-8.99,-8.9902]}]]